[[{"header":{"parameterUnit":"m.s-1","parameterCategory":1,"la1":30.2992,"la2":30.254,"lo1":-89.0895,"lo2":-89.0443,"dy":0.0025,"dx":0.0025,"nx":19,"ny":19,"refTime":"2026-04-25T21:00:00:Z","depth":0,"parameterNumber":2,"parameterNumberName":"U-component_of_WINDS"},"data":[0,0,0,-0.4115,-0.4113,-0.4029,-0.4029,-0.3923,-0.3922,0,0,0,0,0,0,0,0,0,0,0,-0.4142,-0.4142,-0.4115,-0.4113,-0.4029,-0.4029,-0.3923,-0.3922,0,0,0,0,0,0,0,0,0,0,0,-0.4143,-0.4142,-0.4141,-0.4113,-0.4029,-0.4029,-0.3923,-0.3986,0,0,0,0,0,0,0,0,0,0,-0.4067,-0.4095,-0.4142,-0.4141,-0.4112,-0.4029,-0.4029,-0.3989,-0.3982,-0.3963,0,-0.3948,0,-0.3933,-0.3915,-0.3915,0,0,0,-0.411,-0.4101,-0.4076,-0.4141,-0.4111,-0.4029,-0.4066,-0.3985,-0.3977,-0.3954,-0.3946,-0.3942,-0.3932,-0.3915,-0.3914,-0.3816,-0.3815,0,0,-0.4115,-0.4128,-0.4082,-0.4072,-0.4086,-0.4069,-0.4064,-0.398,-0.3972,-0.3946,-0.3939,-0.393,-0.3914,-0.3913,-0.3816,-0.3816,0,0,0,-0.413,-0.4132,-0.4109,-0.4076,-0.4061,-0.4067,-0.406,-0.3976,-0.3967,-0.3938,-0.3929,-0.3913,-0.3912,-0.3816,-0.3816,-0.3813,0,0,0,-0.4133,-0.414,-0.4111,-0.4118,-0.4062,-0.4018,-0.4058,-0.3973,-0.3963,-0.3929,-0.3913,-0.3911,-0.3817,-0.3816,-0.3813,-0.3808,0,0,0,-0.4147,-0.4142,-0.4131,-0.4119,-0.4084,-0.4019,-0.4005,-0.3971,-0.3957,-0.3915,-0.3911,-0.3817,-0.3816,-0.3814,-0.3809,-0.3786,0,0,0,-0.4165,-0.4128,-0.4131,-0.4086,-0.4084,-0.4018,-0.4006,-0.3955,-0.3918,-0.3913,-0.3817,-0.3816,-0.3815,-0.381,-0.3787,-0.3769,-0.3763,0,0,-0.4126,-0.4124,-0.4096,-0.4097,-0.4033,-0.403,-0.3965,-0.3918,-0.3901,-0.3845,-0.3842,-0.3813,-0.381,-0.3787,-0.3725,-0.372,0,0,0,-0.4088,-0.4068,-0.4049,-0.4015,-0.398,-0.3949,-0.391,-0.3893,-0.3845,-0.3875,-0.3798,-0.3796,-0.3782,-0.3772,-0.3768,-0.3755,-0.3812,-0.3812,-0.3813,-0.405,-0.4032,-0.3985,-0.3957,-0.3925,-0.3887,-0.3858,-0.3828,-0.3817,-0.38,-0.3783,-0.3748,-0.3737,-0.3734,-0.3721,-0.3772,-0.3772,-0.3772,-0.3772,-0.399,-0.3959,-0.3948,-0.3899,-0.388,-0.3837,-0.3799,-0.3793,-0.375,-0.3759,-0.3746,-0.3756,-0.373,-0.3717,-0.3772,-0.3772,-0.3772,-0.3772,-0.3772,-0.3962,-0.3944,-0.3925,-0.3876,-0.384,-0.3812,-0.3772,-0.3756,-0.3739,-0.3726,-0.3706,-0.3706,-0.3704,-0.3718,-0.3718,-0.3718,-0.3718,-0.3718,-0.3718,-0.3941,-0.3919,-0.3888,-0.3849,-0.3826,-0.3793,-0.3755,-0.3731,-0.3701,-0.3692,-0.3691,-0.3683,-0.3731,-0.3743,-0.3716,-0.3716,-0.3716,-0.3717,-0.3717,-0.3885,-0.3895,-0.3848,-0.3825,-0.3777,-0.3742,-0.3723,-0.3676,-0.3654,-0.3634,-0.3629,-0.3668,-0.3664,-0.3667,-0.3677,-0.3634,-0.3634,-0.3634,-0.3634,-0.3861,-0.3858,-0.3806,-0.3771,-0.3734,-0.3712,-0.3658,-0.3628,-0.3598,-0.3583,-0.3587,-0.3599,-0.3603,-0.3597,-0.3602,-0.361,-0.3551,-0.3551,-0.3551,-0.3826,-0.3819,-0.3776,-0.375,-0.3711,-0.3679,-0.3627,-0.3585,-0.3554,-0.3548,-0.3571,-0.3575,-0.3594,-0.3601,-0.3594,-0.3602,-0.3618,0,0]},{"header":{"parameterUnit":"m.s-1","parameterCategory":1,"la1":30.2992,"la2":30.254,"lo1":-89.0895,"lo2":-89.0443,"dy":0.0025,"dx":0.0025,"nx":19,"ny":19,"refTime":"2026-04-25T21:00:00:Z","depth":0,"parameterNumber":3,"parameterNumberName":"V-component_of_WINDS"},"data":[0,0,0,1.9304,1.9304,1.9315,1.9315,1.9338,1.9338,0,0,0,0,0,0,0,0,0,0,0,1.9307,1.9307,1.9304,1.9305,1.9315,1.9315,1.9338,1.9338,0,0,0,0,0,0,0,0,0,0,0,1.9307,1.9307,1.9308,1.9305,1.9315,1.9315,1.9338,1.9327,0,0,0,0,0,0,0,0,0,0,1.9315,1.9323,1.9307,1.9308,1.9305,1.9315,1.9315,1.9326,1.9327,1.9338,0,1.9349,0,1.9344,1.9341,1.9341,0,0,0,1.93,1.9322,1.932,1.9308,1.9305,1.9315,1.9309,1.9327,1.9328,1.934,1.9349,1.9349,1.9344,1.9341,1.9341,1.9417,1.9418,0,0,1.9299,1.9312,1.9319,1.9321,1.932,1.9309,1.9309,1.9327,1.9338,1.9349,1.935,1.9345,1.9341,1.9341,1.9416,1.9417,0,0,0,1.9301,1.9312,1.9309,1.932,1.9321,1.9309,1.931,1.9337,1.9335,1.935,1.9345,1.9341,1.9342,1.9416,1.9417,1.9458,0,0,0,1.93,1.9313,1.9309,1.9316,1.9321,1.9329,1.932,1.9334,1.9336,1.9345,1.9341,1.9342,1.9415,1.9416,1.9455,1.9475,0,0,0,1.9304,1.9313,1.9317,1.9317,1.9322,1.9329,1.9328,1.9334,1.9333,1.9341,1.9342,1.9415,1.9416,1.9453,1.9472,1.95,0,0,0,1.9312,1.9352,1.9317,1.936,1.9322,1.9354,1.9327,1.9351,1.9362,1.9341,1.9415,1.9417,1.9452,1.9469,1.9498,1.9527,1.954,0,0,1.937,1.936,1.9384,1.9353,1.9395,1.9352,1.9399,1.9398,1.9386,1.9407,1.9409,1.9456,1.9471,1.9499,1.9607,1.9617,0,0,0,1.9406,1.9424,1.9432,1.9445,1.9445,1.9447,1.9436,1.9436,1.9453,1.94,1.9473,1.9482,1.9498,1.9511,1.952,1.9533,1.9423,1.9423,1.9423,1.9506,1.9491,1.953,1.9516,1.9528,1.9518,1.9526,1.9524,1.9504,1.9521,1.9528,1.9595,1.9611,1.9618,1.9632,1.9541,1.9541,1.9541,1.9541,1.959,1.9613,1.9586,1.9615,1.9599,1.9623,1.9615,1.96,1.962,1.9589,1.9602,1.957,1.963,1.9641,1.9544,1.9544,1.9543,1.9543,1.9543,1.9654,1.9663,1.9662,1.9679,1.9693,1.9677,1.9698,1.9682,1.9666,1.968,1.9685,1.9684,1.9682,1.9683,1.9684,1.9684,1.9684,1.9684,1.9684,1.9721,1.9719,1.9739,1.9744,1.975,1.9756,1.9747,1.9752,1.9754,1.9741,1.9741,1.972,1.9638,1.9619,1.9688,1.9687,1.9687,1.9686,1.9686,1.9813,1.979,1.9821,1.9828,1.9832,1.9849,1.9827,1.9841,1.9843,1.9854,1.983,1.9772,1.976,1.9753,1.9737,1.9833,1.9833,1.9833,1.9833,1.9868,1.9861,1.9889,1.9901,1.991,1.9895,1.9931,1.9925,1.9914,1.9915,1.9898,1.9875,1.9868,1.9861,1.9851,1.9836,1.9954,1.9955,1.9955,1.9924,1.9917,1.9951,1.9941,1.9944,1.9947,1.9981,1.9995,1.9978,1.9959,1.9915,1.991,1.9872,1.986,1.9841,1.9827,1.9798,0,0]}]]